Regional Weather Roundup
Issued by NWS

Home | Current Version | Previous Version | Text Only | Print | Product List | Glossary On
Versions: 1 2 3 4 5 6 7 8 9 10 11 12 13 14 15 16 17 18 19 20 21 22 23 24 25 26 27
000
ASUS46 KPQR 241310
RWROR

OREGON REGIONAL WEATHER ROUNDUP
NATIONAL WEATHER SERVICE PORTLAND OR
600 AM PDT FRI MAR 24 2017

NOTE: "FAIR" INDICATES FEW OR NO CLOUDS BELOW 12,000 FEET WITH
NO SIGNIFICANT WEATHER AND/OR OBSTRUCTIONS TO VISIBILITY.

ORZ001>013-241400-
NORTHWEST OREGON


CITY           SKY/WX    TMP DP  RH WIND       PRES   REMARKS
ASTORIA        CLOUDY    49  44  83 S8        29.76S
NEWPORT        DRIZZLE   46  45  93 S8        29.83S
PORTLAND       RAIN      47  47 100 SE6       29.85R
VANCOUVER WA   LGT RAIN  47  47 100 SE3       29.85R
SCAPPOOSE      LGT RAIN  48  47  96 SE10      29.82R
HILLSBORO      LGT RAIN  48  47  96 S10       29.83R FOG
AURORA         LGT RAIN  49  46  90 S7        29.85R
MCMINNVILLE    LGT RAIN  48  44  86 S8        29.84R
SALEM          LGT RAIN  48  44  86 W6        29.84R
CORVALLIS        N/A     48  45  87 CALM      29.84S
EUGENE         RAIN      48  47  96 SE3       29.84S FOG
$$

ORZ021-028-241400-
SOUTHWEST OREGON


CITY           SKY/WX    TMP DP  RH WIND       PRES   REMARKS
NORTH BEND     CLOUDY    48  46  93 S12       29.86R
BROOKINGS      RAIN      46  45  96 NW7       29.90R
ROSEBURG       RAIN      50  47  89 CALM      29.85R FOG
SEXTON SUMMIT  MIX PCPN  37  36  96 SE15G23   29.80S VSB 1/2 WCI  28
MEDFORD        LGT RAIN  49  38  65 SE23G32   29.87S
$$

ORZ014>016-041-241400-
COLUMBIA GORGE


CITY           SKY/WX    TMP DP  RH WIND       PRES   REMARKS
TROUTDALE      LGT RAIN  48  45  89 E7        29.85R
THE DALLES     LGT RAIN  46  45  96 NW3       29.87F
$$

ORZ029>031-041-044-049-050-061>064-502-503-505>511-241400-
EASTERN OREGON


CITY           SKY/WX    TMP DP  RH WIND       PRES   REMARKS
REDMOND        CLOUDY    45  32  60 S10       29.83F
BEND           CLOUDY    43  34  70 CALM      29.83F
PRINEVILLE     CLOUDY    43  36  75 SE17      29.83F
KLAMATH FALLS  CLOUDY    38  29  70 S20       29.94F WCI  28
LAKEVIEW       CLOUDY    37  25  60 S21G31    29.99F WCI  27
HERMISTON      LGT RAIN  45  44  97 N3        29.88F
PENDLETON      LGT RAIN  44  43  96 E3        29.87F
JOHN DAY       DRIZZLE   42  37  81 SE15      29.93S
MEACHAM        LGT RAIN  38  32  79 CALM      29.89F
LA GRANDE      CLOUDY    48  28  46 S17G23    29.90S
BAKER CITY     LGT RAIN  42  29  59 E13       29.94S
BURNS          LGT RAIN  39  33  79 S14G20    29.97S WCI  31
ROME             N/A     43  26  51 S12       29.97F
ONTARIO        CLOUDY    46  33  60 SE8       30.01F
$$




USA.gov is the U.S. government's official web portal to all federal, state and local government web resources and services.